This is the latest recevied weather packets stored in our database for station/object KB2EAR-13. If no packets are shown the sender has not sent any weather packets the latest 10 day(s).
| Time | Temp. | Humidity | Pressure | Rain* | Wind** | Luminosity | Snow |
|---|---|---|---|---|---|---|---|
| 1778175917 | 16.67° C | 42% | 1010.2 hPa | 0 mm | - | - | - |
| 1778175617 | 16.67° C | 43% | 1010.3 hPa | 0 mm | - | - | - |
| 1778175317 | 16.67° C | 41% | 1010.4 hPa | 0 mm | - | - | - |
| 1778175017 | 16.67° C | 43% | 1010.5 hPa | 0 mm | - | - | - |
| 1778174717 | 16.67° C | 42% | 1010.6 hPa | 0 mm | - | - | - |
| 1778174540 | 16.67° C | 43% | 1010.6 hPa | 0 mm | - | - | - |
| 1778174418 | 16.67° C | 43% | 1010.6 hPa | 0 mm | - | - | - |
| 1778174117 | 16.67° C | 40% | 1010.6 hPa | 0 mm | - | - | - |
| 1778173925 | 16.67° C | 41% | 1010.6 hPa | 0 mm | - | - | - |
| 1778173817 | 16.67° C | 41% | 1010.6 hPa | 0 mm | - | - | - |
| 1778173517 | 16.11° C | 44% | 1010.6 hPa | 0 mm | - | - | - |
| 1778173217 | 16.11° C | 42% | 1010.9 hPa | 0 mm | - | - | - |
| 1778173029 | 16.67° C | 42% | 1010.9 hPa | 0 mm | - | - | - |
| 1778173028 | 16.67° C | 44% | 1010.9 hPa | 0 mm | - | - | - |
| 1778172917 | 16.67° C | 42% | 1010.9 hPa | 0 mm | - | - | - |
| 1778172617 | 16.67° C | 44% | 1010.9 hPa | 0 mm | - | - | - |
| 1778172317 | 16.11° C | 47% | 1011 hPa | 0 mm | - | - | - |
| 1778172017 | 16.11° C | 44% | 1011.1 hPa | 0 mm | - | - | - |
| 1778171717 | 16.11° C | 44% | 1011.1 hPa | 0 mm | - | - | - |
| 1778171417 | 16.11° C | 45% | 1011.2 hPa | 0 mm | - | - | - |
| 1778171117 | 15.56° C | 45% | 1011.4 hPa | 0 mm | - | - | - |
| 1778170817 | 15.56° C | 45% | 1011.5 hPa | 0 mm | - | - | - |
| 1778170517 | 15.56° C | 45% | 1011.4 hPa | 0 mm | - | - | - |
| 1778170217 | 15.56° C | 48% | 1011.3 hPa | 0 mm | - | - | - |
| 1778169917 | 15.56° C | 45% | 1011.4 hPa | 0 mm | - | - | - |
* Rain latest hour (hover to see other rain measurements)
** Current wind speed in m/s (hover to see current wind gust speed)